Temperature
17 17 17 17 17 17 17 17 17 17 17 17 17 17 17 17 17 17 17 17 17 17 17 17 17 17 17 16 16 16 16 16 16 16 16 16 16 16 16 16 16 15 16
17 17 17 17 17 17 17 17 17 17 17 17 17 17 17 17 17 17 17 17 17 17 17 17 17 17 17 16 16 16 16 16 16 16 16 16 16 16 15 15 15 15 15
17 17 17 17 17 17 17 17 17 17 17 17 17 17 17 17 17 17 17 17 17 17 17 17 17 17 17 16 16 16 16 16 16 16 16 16 16 15 15 15 15 15 15
17 17 17 17 17 17 17 17 17 17 17 17 17 17 17 17 17 17 17 17 17 17 17 17 17 16 16 16 16 16 16 16 16 16 16 16 16 15 15 15 15 15 15
17 17 17 17 17 17 17 17 17 17 17 17 17 17 17 17 17 17 17 17 17 17 17 17 16 16 16 16 16 16 16 16 16 16 16 16 16 15 15 15 15 15 15
17 17 17 17 17 17 17 17 17 17 17 17 17 17 17 17 17 17 17 17 17 17 16 16 16 16 16 16 16 16 16 16 16 16 16 16 15 15 15 15 15 15 15
17 17 17 17 17 17 17 17 17 17 17 17 17 17 17 17 17 17 17 17 17 16 16 16 16 16 16 16 16 16 16 16 16 15 15 15 15 15 15 15 15 15 15
17 17 17 17 17 17 17 17 17 17 17 17 17 17 16 16 16 16 16 16 16 16 16 16 16 16 16 16 16 16 16 15 15 15 15 15 15 15 15 15 15 15 15
17 17 17 17 17 17 17 17 17 17 17 17 17 17 16 16 16 16 16 16 16 16 16 16 16 16 16 16 16 16 16 15 15 15 15 15 15 15 15 15 15 15 14
17 17 17 17 17 17 17 17 17 17 17 17 17 16 16 16 16 15 16 16 16 16 16 16 15 15 15 15 15 15 15 15 15 15 15 15 15 15 15 15 15 14 14
17 17 17 17 17 17 17 17 17 17 17 17 17 16 16 16 16 16 15 15 15 15 15 15 15 15 15 15 15 15 15 15 15 15 15 15 15 15 14 14 14 14 14
17 17 17 17 17 17 17 17 17 17 17 17 16 16 16 16 16 16 15 15 15 15 15 15 15 15 15 15 15 15 15 15 15 15 14 14 14 14 14 14 14 14 14
18 18 17 17 17 17 17 17 17 17 16 16 16 16 16 16 16 16 15 15 15 15 15 15 15 15 15 14 14 14 14 14 14 14 14 14 14 14 14 14 14 14 14
18 18 17 17 17 17 17 17 17 17 16 16 16 16 16 16 16 16 15 15 15 14 14 14 14 14 14 14 14 14 14 14 14 14 14 14 14 13 13 13 13 13 13
18 18 18 17 17 17 17 16 16 16 16 16 16 16 16 16 16 15 15 15 15 14 14 14 14 14 14 14 14 14 14 13 13 13 13 13 13 13 13 13 13 13 13
18 18 18 17 17 17 17 16 16 16 16 16 16 16 16 16 16 15 15 15 15 15 14 14 14 14 13 13 13 13 13 13 13 13 13 13 13 13 13 13 13 12 12
18 18 18 17 17 17 17 16 16 16 16 16 16 16 16 16 15 15 15 15 15 14 14 14 14 13 13 13 13 13 13 13 13 12 12 12 12 12 12 12 12 12 12
18 18 18 17 17 17 17 16 16 16 16 16 16 16 16 16 15 15 15 15 15 14 14 14 14 13 13 13 13 13 12 12 12 12 12 12 12 12 12 12 11 11 11
18 18 18 18 17 17 17 16 16 16 16 16 16 15 15 15 15 15 15 14 14 14 14 14 13 13 13 13 12 12 12 12 12 12 12 12 12 11 11 11 11 11 11
18 18 18 18 17 17 17 16 16 16 16 16 15 15 15 15 15 15 14 14 14 14 14 13 13 13 13 12 12 12 12 12 12 11 11 11 11 11 11 11 11 11 10
18 18 18 18 17 17 17 16 16 16 16 16 15 15 15 15 14 14 14 14 14 14 13 13 13 13 12 12 12 12 12 11 11 11 11 11 11 11 11 11 10 10 10
18 18 18 18 17 17 17 16 16 16 16 15 15 15 15 14 14 14 14 14 13 13 13 13 13 12 12 12 12 11 11 11 11 11 11 11 11 11 11 10 10 10 10
18 18 18 17 17 17 16 16 16 15 15 15 15 15 14 14 14 14 14 13 13 13 13 13 13 12 12 12 11 11 11 11 11 11 11 11 11 11 10 10 10 10 10
18 18 17 17 17 17 16 16 15 15 15 15 15 14 14 14 14 14 13 13 13 13 13 12 12 12 12 12 11 11 11 11 11 10 10 10 10 10 10 10 10 10 10
18 17 17 17 16 16 16 15 15 15 15 15 15 14 14 14 14 13 13 13 13 13 12 12 12 12 11 11 11 11 11 11 10 10 10 10 10 10 10 10 10 10 10
18 17 17 17 16 16 16 15 15 15 15 15 14 14 14 13 13 13 13 13 13 12 12 12 12 11 11 11 11 11 11 10 10 10 10 10 10 10 10 10 10 10 9
Wind_Speed
1 2 1 2 2 2 2 2 2 2 1 1 1 3 4 4 3 3 4 6 7 7 8 8 8 8 8 8 8 8 7 7 8 8 8 8 8 8 9 8 8 7 7
3 2 1 1 1 2 2 2 2 1 1 1 1 2 3 4 3 3 4 5 7 8 8 8 9 8 8 8 8 8 8 8 9 9 9 9 9 9 9 9 9 8 8
4 3 2 1 1 2 2 2 2 2 1 1 1 1 2 3 3 3 3 4 4 6 7 8 9 9 9 9 9 8 8 9 9 9 9 9 9 9 9 9 9 9 9
4 4 2 2 2 3 2 2 2 1 1 1 1 1 1 1 2 3 3 3 3 3 5 7 8 9 9 9 9 9 9 9 9 9 9 9 10 10 10 9 9 9 10
4 4 2 2 3 3 2 2 2 2 2 2 1 1 1 1 1 2 2 3 3 3 4 5 7 7 8 8 8 8 9 9 10 10 10 10 11 11 11 11 11 11 11
4 4 3 3 3 2 2 2 2 2 2 2 2 2 2 1 1 1 2 2 2 3 3 3 4 5 7 7 7 7 8 9 10 11 11 11 11 12 13 13 13 12 12
4 4 2 3 3 2 2 3 3 3 2 2 3 2 3 3 2 1 0 1 1 2 2 2 3 3 3 5 5 6 7 7 8 9 9 10 11 11 12 14 13 13 12
3 3 3 2 3 2 2 3 3 2 1 2 2 2 1 2 2 3 2 1 1 1 1 0 1 1 2 2 3 4 5 6 6 6 7 8 8 9 9 10 12 12 11
2 3 3 3 3 3 3 3 3 4 3 1 1 2 2 1 1 2 2 2 2 2 1 1 1 0 1 1 2 2 2 2 3 3 4 4 5 5 5 6 8 10 11
2 3 3 3 3 2 3 3 3 3 4 2 1 1 1 2 2 0 1 2 2 2 1 1 1 1 1 0 0 1 0 0 1 1 2 3 4 4 4 6 7 8 9
1 2 3 3 3 2 3 3 2 3 3 3 2 2 1 1 1 2 1 0 1 1 1 1 2 2 2 1 1 2 1 1 1 1 2 2 1 1 2 3 3 4 5
0 0 2 2 2 2 3 3 3 3 3 3 2 2 2 2 2 2 2 1 1 1 1 1 2 2 2 3 3 3 3 3 3 2 2 2 2 2 2 1 2 2 2
1 1 1 2 2 2 3 3 3 3 3 3 3 2 2 2 2 2 2 1 1 1 0 1 1 1 2 3 3 3 4 4 4 3 3 3 2 3 3 3 2 3 3
2 2 2 2 2 2 2 3 2 3 2 3 3 3 2 2 2 3 3 3 1 1 1 0 1 1 2 2 2 3 3 4 5 5 4 4 4 4 4 4 5 5 5
2 2 2 2 2 2 2 2 2 2 2 2 2 2 2 2 2 2 3 3 3 2 2 1 0 0 1 2 2 3 3 4 5 5 5 5 5 5 4 4 5 5 6
2 2 2 2 2 1 2 2 1 1 2 1 1 2 2 1 2 2 3 2 3 3 2 1 1 0 1 2 2 3 3 4 5 4 4 4 4 4 4 4 4 5 5
3 3 3 2 2 2 2 2 2 1 2 1 0 1 2 2 2 2 2 3 3 3 2 1 0 0 1 1 2 3 3 3 3 3 3 3 3 3 3 3 3 4 4
3 3 3 3 2 2 2 3 2 2 2 1 1 1 1 1 2 2 2 3 3 3 3 3 1 1 0 1 1 1 2 2 2 2 2 3 3 3 3 3 3 3 3
3 3 3 3 3 3 3 3 3 2 2 2 2 2 2 2 2 2 2 2 2 3 3 3 2 1 0 1 1 0 1 1 1 1 2 2 2 2 3 3 3 3 3
4 3 3 3 3 3 3 3 3 3 2 1 1 2 2 3 3 3 3 3 3 3 3 3 2 1 1 1 1 1 0 0 0 1 1 1 1 1 1 1 1 2 3
3 3 3 2 2 2 3 3 3 3 3 2 1 1 2 2 3 3 3 4 4 4 4 3 2 2 2 2 2 2 2 1 1 1 1 0 0 1 1 1 1 2 3
3 3 3 3 3 3 3 4 4 3 3 3 2 1 1 1 2 3 4 5 6 6 5 4 3 4 4 3 2 2 2 1 2 1 2 2 1 2 3 3 4 4 4
4 4 4 4 4 4 4 4 5 4 3 3 3 2 1 1 2 2 3 4 4 6 7 6 6 5 5 5 5 4 3 3 3 1 2 2 2 3 4 4 5 5 6
5 4 5 4 4 4 5 5 5 4 3 3 3 3 3 2 2 3 3 2 2 3 5 5 6 6 5 5 6 4 3 2 2 1 3 2 2 3 3 5 6 7 8
5 4 4 4 4 4 5 5 5 3 3 3 2 2 3 3 3 4 4 3 2 2 2 4 5 5 5 7 7 4 3 2 2 3 3 3 2 2 2 3 5 7 9
5 4 4 4 5 5 5 7 6 3 3 2 2 2 3 4 4 5 4 4 3 3 2 1 2 2 4 6 8 7 5 4 3 3 3 3 2 2 2 2 2 3 5
Wind_Direction
142 121 113 112 114 119 115 108 97 83 69 77 130 158 170 172 176 184 190 188 187 187 187 185 186 189 189 188 191 193 194 197 196 196 198 201 205 207 204 204 205 207 208
166 150 142 139 147 151 152 138 129 96 74 83 107 158 170 174 177 185 198 201 200 199 198 199 199 201 201 201 200 202 206 208 208 208 211 213 214 216 217 216 215 216 216
171 162 154 169 181 160 141 126 115 110 112 106 107 128 152 168 170 185 193 201 209 211 212 213 212 211 210 210 211 212 213 216 217 216 217 219 220 220 219 220 222 221 224
172 161 160 185 175 146 137 133 123 111 105 103 88 75 104 135 162 173 179 190 201 217 226 224 219 217 218 221 222 221 216 218 218 219 220 223 223 221 221 222 225 228 232
168 164 171 177 157 142 145 154 127 133 132 121 107 68 75 143 167 169 171 188 199 215 230 239 234 229 230 232 229 228 227 224 222 224 226 229 229 228 227 228 228 231 234
168 163 165 164 151 143 137 134 124 116 136 135 94 58 40 47 92 171 199 198 206 209 217 234 249 246 243 243 239 240 242 236 233 233 234 236 236 234 231 230 231 232 234
172 161 159 155 150 160 165 149 133 121 112 116 96 59 36 40 53 38 86 142 184 207 201 216 237 243 249 253 248 245 246 244 241 237 235 237 238 238 238 235 232 231 233
171 168 160 163 159 163 158 148 144 133 142 139 132 111 37 12 29 34 40 61 46 78 89 134 181 208 225 244 256 254 255 249 244 242 240 237 238 240 242 236 230 227 227
178 174 168 165 164 170 179 177 171 164 173 181 147 151 154 201 327 15 38 48 51 54 45 59 71 135 202 229 266 266 250 244 246 249 250 241 233 233 229 233 234 230 227
172 174 174 173 174 176 185 197 183 175 166 178 163 142 161 158 164 13 10 32 43 38 27 31 35 39 32 95 156 83 67 303 275 280 278 270 259 251 239 239 234 229 225
186 182 178 176 179 187 194 195 181 174 173 176 174 163 138 113 157 178 235 331 30 17 18 27 37 32 24 45 64 68 58 19 5 352 356 2 349 303 246 234 220 210 206
285 175 166 171 181 186 194 194 182 179 185 183 182 177 174 174 183 182 207 240 298 336 8 30 29 33 40 49 60 66 69 60 50 42 34 29 21 27 31 159 186 184 182
226 223 175 172 183 190 187 179 174 184 188 190 197 203 201 204 180 172 172 199 233 273 12 34 14 34 48 54 58 65 69 69 67 63 56 47 47 52 50 63 103 124 139
211 198 174 168 170 172 179 174 172 188 185 197 208 202 206 214 188 177 179 175 189 239 231 249 21 44 57 67 67 76 69 68 72 72 72 70 70 71 72 72 74 89 102
190 169 155 146 153 166 175 163 166 182 173 191 205 207 218 226 202 197 182 179 176 208 238 212 218 35 66 75 74 83 78 72 75 74 76 78 79 82 83 83 84 92 106
171 151 145 144 140 130 138 145 161 173 162 190 195 197 219 224 199 187 183 182 184 189 211 214 217 227 126 94 72 85 83 79 77 74 78 80 81 84 88 93 96 100 110
172 166 169 164 154 146 141 139 149 143 148 152 170 190 218 187 180 186 181 180 177 169 191 229 202 164 130 116 82 81 78 80 78 76 78 81 85 87 91 94 99 107 112
177 175 172 168 174 164 156 157 167 162 167 193 229 202 229 183 169 182 180 184 181 175 179 189 193 162 142 160 137 111 90 94 98 84 86 90 94 96 96 99 106 110 123
174 168 166 172 178 173 169 173 173 175 191 217 227 218 232 186 189 188 181 181 178 164 156 163 174 156 123 142 120 99 92 69 87 81 80 82 88 90 91 94 99 108 121
176 176 177 182 186 185 183 181 173 175 189 213 221 216 219 204 206 194 182 181 170 159 149 149 149 140 144 171 163 174 207 317 242 105 89 78 89 101 103 111 123 134 138
188 182 177 190 200 197 200 191 186 183 182 184 205 230 222 197 193 195 186 181 172 170 164 162 160 157 173 182 201 206 212 241 259 235 247 290 262 247 233 222 203 189 183
188 185 195 199 209 222 207 193 183 183 186 191 209 235 229 208 193 190 185 180 176 176 183 184 191 192 205 205 201 189 186 194 244 224 216 251 233 256 251 239 233 221 214
196 203 212 202 214 225 207 198 192 190 199 208 210 219 232 236 205 195 188 182 190 189 186 188 194 202 200 197 190 194 201 214 236 203 193 245 241 252 252 247 234 225 221
197 209 216 212 214 227 208 201 195 196 207 218 215 207 206 226 216 184 178 180 199 205 203 202 207 211 207 196 193 196 200 217 243 201 187 234 237 246 257 249 238 227 223
203 207 206 205 214 228 210 199 187 193 207 227 231 218 206 210 207 178 168 178 199 241 228 214 211 204 196 187 175 162 164 189 240 230 200 224 241 250 253 253 251 235 227
202 195 204 207 213 223 214 201 188 191 202 222 237 235 215 204 198 183 178 179 200 235 227 204 193 189 189 186 181 186 190 201 227 238 203 207 220 215 251 245 244 231 225
Height
1549 1549 1551 1552 1553 1554 1555 1556 1557 1558 1558 1559 1560 1561 1562 1563 1563 1563 1564 1564 1565 1566 1567 1568 1569 1570 1570 1571 1572 1572 1573 1573 1574 1575 1576 1577 1578 1579 1580 1581 1581 1582 1583
1550 1551 1552 1553 1554 1555 1556 1557 1558 1558 1559 1560 1561 1561 1562 1563 1563 1564 1564 1564 1565 1566 1567 1568 1569 1569 1570 1570 1571 1571 1572 1573 1573 1574 1575 1576 1577 1577 1578 1579 1579 1580 1581
1551 1552 1553 1554 1555 1555 1556 1557 1558 1559 1559 1560 1561 1562 1562 1563 1563 1564 1564 1564 1565 1566 1567 1567 1568 1568 1569 1569 1570 1570 1571 1571 1572 1572 1573 1574 1575 1575 1576 1577 1578 1578 1579
1551 1552 1553 1554 1555 1556 1556 1557 1558 1559 1559 1560 1561 1561 1562 1562 1563 1563 1564 1564 1565 1565 1566 1567 1567 1568 1568 1568 1569 1569 1569 1570 1570 1570 1571 1572 1572 1573 1574 1575 1575 1576 1577
1551 1552 1553 1554 1555 1555 1556 1557 1558 1558 1559 1559 1560 1561 1561 1562 1562 1563 1563 1563 1564 1565 1565 1566 1566 1566 1567 1567 1568 1568 1568 1568 1568 1569 1569 1569 1570 1570 1571 1572 1572 1573 1574
1551 1552 1553 1553 1554 1555 1556 1556 1557 1558 1558 1559 1559 1560 1560 1561 1561 1561 1562 1562 1563 1563 1564 1564 1565 1565 1565 1566 1566 1566 1566 1566 1566 1566 1566 1567 1567 1567 1568 1568 1569 1570 1570
1551 1552 1552 1553 1554 1554 1555 1556 1556 1557 1557 1558 1558 1559 1559 1560 1560 1560 1561 1561 1562 1562 1562 1563 1563 1563 1564 1564 1564 1564 1564 1564 1564 1564 1564 1563 1564 1564 1564 1565 1565 1566 1567
1551 1551 1552 1553 1553 1554 1555 1555 1556 1556 1557 1557 1558 1558 1558 1560 1559 1559 1559 1560 1560 1561 1561 1561 1561 1562 1562 1562 1562 1562 1561 1561 1561 1561 1561 1561 1561 1561 1561 1561 1562 1562 1563
1550 1551 1552 1552 1553 1553 1554 1554 1555 1555 1556 1556 1557 1558 1558 1558 1558 1558 1558 1559 1559 1559 1559 1559 1559 1559 1559 1560 1559 1559 1559 1559 1558 1558 1558 1558 1558 1558 1558 1558 1558 1559 1559
1550 1550 1551 1551 1552 1552 1553 1553 1553 1554 1554 1555 1556 1556 1557 1557 1558 1557 1558 1558 1558 1557 1557 1557 1557 1557 1557 1557 1557 1557 1556 1556 1556 1556 1555 1555 1555 1555 1554 1555 1555 1555 1556
1549 1550 1550 1550 1551 1551 1551 1552 1552 1552 1553 1554 1554 1554 1555 1555 1556 1556 1556 1556 1556 1556 1556 1556 1556 1556 1556 1556 1555 1555 1554 1554 1554 1553 1553 1553 1553 1553 1552 1552 1552 1552 1553
1548 1549 1549 1549 1550 1550 1550 1550 1550 1551 1551 1552 1552 1552 1553 1553 1554 1554 1554 1554 1554 1555 1555 1555 1555 1555 1554 1554 1554 1554 1553 1553 1552 1552 1551 1551 1550 1550 1550 1550 1550 1550 1550
1547 1548 1548 1548 1548 1548 1548 1548 1549 1549 1550 1550 1550 1551 1551 1552 1552 1552 1552 1552 1553 1553 1553 1554 1553 1553 1553 1553 1553 1552 1552 1551 1550 1550 1549 1549 1548 1547 1547 1548 1548 1548 1548
1546 1547 1547 1547 1547 1546 1546 1546 1547 1547 1548 1548 1548 1549 1549 1550 1550 1550 1550 1551 1551 1551 1552 1552 1552 1552 1552 1552 1551 1551 1550 1550 1549 1549 1548 1547 1546 1546 1546 1546 1546 1546 1546
1545 1545 1545 1545 1545 1545 1545 1545 1545 1545 1546 1546 1547 1547 1547 1548 1548 1548 1548 1549 1550 1549 1549 1550 1550 1550 1550 1550 1550 1550 1549 1549 1548 1547 1547 1546 1545 1545 1544 1544 1544 1544 1544
1544 1544 1544 1544 1544 1544 1544 1544 1544 1544 1544 1545 1545 1545 1545 1545 1546 1546 1546 1546 1547 1548 1547 1548 1548 1549 1549 1549 1548 1548 1548 1548 1547 1546 1545 1545 1544 1543 1543 1543 1543 1543 1543
1543 1543 1543 1543 1543 1543 1543 1543 1543 1543 1543 1543 1543 1543 1543 1543 1543 1543 1543 1543 1544 1544 1545 1545 1546 1547 1547 1547 1547 1547 1546 1546 1546 1545 1545 1544 1543 1542 1542 1542 1542 1542 1542
1541 1542 1542 1542 1542 1542 1541 1541 1541 1541 1541 1541 1541 1541 1541 1541 1541 1541 1541 1541 1541 1542 1542 1542 1543 1544 1545 1545 1545 1545 1545 1545 1544 1544 1543 1543 1542 1541 1541 1541 1540 1540 1540
1539 1540 1540 1540 1540 1540 1540 1540 1539 1539 1540 1540 1539 1539 1538 1538 1538 1538 1538 1538 1539 1539 1540 1540 1540 1541 1542 1542 1543 1543 1543 1543 1543 1542 1542 1541 1541 1541 1540 1540 1539 1539 1539
1537 1538 1538 1538 1538 1538 1538 1538 1537 1537 1537 1537 1537 1537 1536 1536 1536 1536 1536 1536 1536 1537 1537 1537 1538 1539 1539 1540 1540 1541 1541 1541 1541 1541 1541 1540 1540 1539 1539 1539 1538 1538 1538
1535 1535 1536 1536 1536 1536 1536 1536 1535 1535 1535 1535 1534 1534 1534 1534 1533 1534 1533 1533 1534 1534 1535 1535 1535 1536 1536 1537 1538 1538 1539 1539 1539 1539 1539 1539 1538 1538 1538 1537 1537 1537 1536
1532 1532 1533 1533 1533 1533 1533 1533 1533 1533 1533 1532 1532 1532 1531 1531 1531 1531 1531 1531 1532 1532 1532 1533 1533 1533 1534 1535 1535 1536 1536 1536 1537 1538 1537 1537 1536 1536 1536 1535 1535 1535 1535
1528 1529 1530 1530 1530 1530 1530 1530 1530 1530 1530 1530 1529 1529 1529 1529 1529 1529 1529 1529 1529 1530 1530 1531 1530 1530 1531 1532 1533 1533 1534 1534 1534 1535 1535 1534 1534 1534 1534 1533 1533 1533 1534
1525 1526 1526 1526 1526 1527 1527 1527 1527 1527 1527 1527 1526 1526 1526 1526 1526 1526 1526 1526 1526 1527 1527 1528 1528 1528 1529 1530 1530 1531 1531 1532 1532 1532 1532 1532 1532 1531 1531 1531 1531 1531 1531
1521 1522 1522 1522 1523 1523 1523 1524 1524 1524 1523 1523 1523 1522 1522 1523 1523 1522 1522 1522 1523 1524 1524 1525 1526 1526 1527 1527 1528 1528 1529 1529 1529 1529 1529 1529 1529 1529 1529 1528 1528 1528 1528
1517 1518 1518 1518 1518 1518 1519 1520 1520 1520 1519 1519 1520 1519 1519 1519 1519 1519 1519 1519 1520 1521 1521 1522 1523 1523 1524 1524 1525 1525 1525 1526 1526 1526 1526 1526 1526 1526 1525 1525 1525 1525 1526